When you browse on this site, cookies collect data to enhance your experience and personalize the content and advertising you see.
Visit our Privacy Policy to learn more. By continuing to use the site, you agree to this use of cookies and data.
  • în România
  • Lista ţărilor
  • Pe 7 zile
  • Temperatura apei
  • Hartă satelitară
  • Meteo pe hartă
  • Widget-uri
  • user-avatar
    Intrare

    Meteo pe oră la Ukozyash

    Astăzi, 23 Februarie, Sâmbătă

    Timp Temperatura Precipitaţii Vânt Presiune Umiditate
    00:00 -9°C° 0.2 mm 7 m/s 741 mmHg 88%
    01:00 -12°C° 0.2 mm 7 m/s 742 mmHg 87%
    02:00 -12°C° 0 mm 6 m/s 743 mmHg 88%
    03:00 -13°C° 0 mm 5 m/s 743 mmHg 90%
    04:00 -14°C° 0 mm 3 m/s 744 mmHg 93%
    05:00 -15°C° 0 mm 4 m/s 744 mmHg 93%
    06:00 -15°C° 0 mm 4 m/s 744 mmHg 94%
    07:00 -14°C° 0 mm 4 m/s 745 mmHg 94%
    08:00 -14°C° 0 mm 4 m/s 745 mmHg 94%
    09:00 -12°C° 0 mm 4 m/s 745 mmHg 93%
    10:00 -12°C° 0 mm 4 m/s 745 mmHg 92%
    11:00 -11°C° 0.1 mm 4 m/s 745 mmHg 91%
    12:00 -11°C° 0.1 mm 4 m/s 745 mmHg 90%
    13:00 -10°C° 0.1 mm 4 m/s 745 mmHg 88%
    14:00 -10°C° 0.1 mm 4 m/s 745 mmHg 89%
    15:00 -9°C° 0.1 mm 3 m/s 745 mmHg 89%
    16:00 -9°C° 0 mm 3 m/s 746 mmHg 89%
    17:00 -10°C° 0 mm 3 m/s 746 mmHg 91%
    18:00 -10°C° 0 mm 3 m/s 746 mmHg 93%
    19:00 -10°C° 0 mm 2 m/s 746 mmHg 95%
    20:00 -10°C° 0 mm 2 m/s 746 mmHg 96%
    21:00 -12°C° 0 mm 3 m/s 747 mmHg 96%
    22:00 -10°C° 0 mm 3 m/s 747 mmHg 96%
    23:00 -10°C° 0.1 mm 3 m/s 747 mmHg 96%

    Mâine, 24 Februarie, Duminică

    Timp Temperatura Precipitaţii Vânt Presiune Umiditate
    00:00 -11°C° 0.1 mm 4 m/s 747 mmHg 96%
    01:00 -11°C° 0.1 mm 4 m/s 748 mmHg 95%
    02:00 -12°C° 0.1 mm 4 m/s 748 mmHg 95%
    03:00 -14°C° 0.1 mm 4 m/s 748 mmHg 95%
    04:00 -14°C° 0.1 mm 4 m/s 748 mmHg 95%
    05:00 -15°C° 0.1 mm 4 m/s 748 mmHg 95%
    06:00 -16°C° 0.1 mm 4 m/s 748 mmHg 96%
    07:00 -17°C° 0.1 mm 4 m/s 748 mmHg 96%
    08:00 -17°C° 0 mm 3 m/s 748 mmHg 96%
    09:00 -18°C° 0 mm 3 m/s 748 mmHg 95%
    10:00 -19°C° 0 mm 3 m/s 748 mmHg 94%
    11:00 -19°C° 0 mm 4 m/s 748 mmHg 92%
    12:00 -18°C° 0 mm 4 m/s 748 mmHg 91%
    13:00 -17°C° 0 mm 4 m/s 748 mmHg 89%
    14:00 -17°C° 0 mm 5 m/s 748 mmHg 90%
    15:00 -17°C° 0 mm 5 m/s 747 mmHg 91%
    16:00 -15°C° 0 mm 5 m/s 747 mmHg 91%
    17:00 -15°C° 0.1 mm 5 m/s 747 mmHg 92%
    18:00 -15°C° 0.1 mm 5 m/s 747 mmHg 93%
    19:00 -15°C° 0.1 mm 5 m/s 747 mmHg 93%
    20:00 -15°C° 0.1 mm 4 m/s 747 mmHg 94%
    21:00 -15°C° 0.1 mm 4 m/s 747 mmHg 94%
    22:00 -15°C° 0.1 mm 4 m/s 747 mmHg 94%
    23:00 -15°C° 0.1 mm 4 m/s 746 mmHg 94%

    Poimâine, 25 Februarie, Luni

    Timp Temperatura Precipitaţii Vânt Presiune Umiditate
    00:00 -15°C° 0.1 mm 4 m/s 746 mmHg 95%
    01:00 -16°C° 0.1 mm 4 m/s 746 mmHg 95%
    02:00 -16°C° 0.1 mm 4 m/s 746 mmHg 95%
    03:00 -16°C° 0.1 mm 4 m/s 745 mmHg 96%
    04:00 -17°C° 0.1 mm 4 m/s 745 mmHg 96%
    05:00 -17°C° 0 mm 4 m/s 745 mmHg 96%
    06:00 -17°C° 0 mm 4 m/s 745 mmHg 96%
    07:00 -17°C° 0 mm 4 m/s 744 mmHg 96%
    08:00 -16°C° 0.1 mm 4 m/s 744 mmHg 96%
    09:00 -16°C° 0.1 mm 4 m/s 744 mmHg 95%
    10:00 -17°C° 0.1 mm 5 m/s 744 mmHg 95%
    11:00 -15°C° 0 mm 5 m/s 743 mmHg 95%
    12:00 -14°C° 0 mm 5 m/s 743 mmHg 94%
    13:00 -13°C° 0 mm 5 m/s 743 mmHg 94%
    14:00 -13°C° 0 mm 5 m/s 742 mmHg 93%
    15:00 -13°C° 0 mm 5 m/s 742 mmHg 93%
    16:00 -13°C° 0 mm 5 m/s 741 mmHg 92%
    17:00 -13°C° 0 mm 5 m/s 741 mmHg 92%
    18:00 -13°C° 0 mm 5 m/s 741 mmHg 93%
    19:00 -14°C° 0 mm 4 m/s 741 mmHg 93%
    20:00 -14°C° 0 mm 4 m/s 741 mmHg 94%
    21:00 -15°C° 0 mm 5 m/s 741 mmHg 94%
    22:00 -15°C° 0 mm 5 m/s 740 mmHg 95%
    23:00 -15°C° 0 mm 5 m/s 740 mmHg 95%

    26 Februarie, Marţi

    Timp Temperatura Precipitaţii Vânt Presiune Umiditate
    00:00 -16°C° 0 mm 4 m/s 740 mmHg 95%
    01:00 -16°C° 0 mm 4 m/s 739 mmHg 95%
    02:00 -16°C° 0 mm 4 m/s 739 mmHg 95%
    03:00 -17°C° 0 mm 4 m/s 739 mmHg 95%
    04:00 -17°C° 0 mm 4 m/s 739 mmHg 95%
    05:00 -17°C° 0 mm 4 m/s 738 mmHg 95%
    06:00 -17°C° 0 mm 4 m/s 738 mmHg 95%
    07:00 -17°C° 0 mm 4 m/s 738 mmHg 95%
    08:00 -18°C° 0 mm 5 m/s 738 mmHg 95%
    09:00 -17°C° 0 mm 5 m/s 738 mmHg 94%
    10:00 -17°C° 0 mm 5 m/s 737 mmHg 94%
    11:00 -15°C° 0 mm 5 m/s 737 mmHg 94%
    12:00 -14°C° 0 mm 5 m/s 737 mmHg 93%
    13:00 -13°C° 0 mm 5 m/s 737 mmHg 93%
    14:00 -13°C° 0 mm 5 m/s 737 mmHg 93%
    15:00 -11°C° 0 mm 4 m/s 737 mmHg 93%
    16:00 -11°C° 0 mm 4 m/s 737 mmHg 93%
    17:00 -12°C° 0 mm 4 m/s 737 mmHg 93%
    18:00 -12°C° 0 mm 3 m/s 737 mmHg 94%
    19:00 -13°C° 0 mm 3 m/s 737 mmHg 95%
    20:00 -13°C° 0 mm 3 m/s 738 mmHg 95%
    21:00 -14°C° 0 mm 3 m/s 738 mmHg 95%
    22:00 -13°C° 0 mm 2 m/s 738 mmHg 95%
    23:00 -14°C° 0 mm 2 m/s 738 mmHg 95%

    27 Februarie, Miercuri

    Timp Temperatura Precipitaţii Vânt Presiune Umiditate
    00:00 -14°C° 0 mm 2 m/s 738 mmHg 95%
    01:00 -14°C° 0 mm 2 m/s 738 mmHg 95%
    02:00 -14°C° 0 mm 2 m/s 738 mmHg 94%
    03:00 -15°C° 0 mm 2 m/s 738 mmHg 94%
    04:00 -15°C° 0 mm 2 m/s 738 mmHg 94%
    05:00 -15°C° 0 mm 2 m/s 738 mmHg 94%
    06:00 -13°C° 0 mm 1 m/s 738 mmHg 94%
    07:00 -13°C° 0 mm 1 m/s 738 mmHg 94%
    08:00 -12°C° 0 mm 1 m/s 738 mmHg 93%
    09:00 -11°C° 0 mm 1 m/s 738 mmHg 92%
    10:00 -11°C° 0 mm 1 m/s 738 mmHg 91%
    11:00 -9°C° 0 mm 1 m/s 737 mmHg 89%
    12:00 -8°C° 0 mm 1 m/s 737 mmHg 88%
    13:00 -7°C° 0 mm 1 m/s 737 mmHg 87%
    14:00 -7°C° 0 mm 1 m/s 737 mmHg 88%
    15:00 -6°C° 0 mm 0 m/s 736 mmHg 89%
    16:00 -6°C° 0 mm 0 m/s 736 mmHg 89%
    17:00 -8°C° 0 mm 0 m/s 736 mmHg 91%
    18:00 -10°C° 0 mm 0 m/s 736 mmHg 93%
    19:00 -11°C° 0 mm 0 m/s 736 mmHg 95%
    20:00 -11°C° 0 mm 0 m/s 735 mmHg 95%
    21:00 -12°C° 0 mm 0 m/s 735 mmHg 95%
    22:00 -12°C° 0 mm 0 m/s 735 mmHg 96%
    23:00 -11°C° 0.1 mm 0 m/s 735 mmHg 95%

    28 Februarie, Joi

    Timp Temperatura Precipitaţii Vânt Presiune Umiditate
    00:00 -10°C° 0.1 mm 0 m/s 735 mmHg 95%
    01:00 -10°C° 0.1 mm 0 m/s 734 mmHg 95%
    02:00 -9°C° 0.1 mm 1 m/s 734 mmHg 95%
    03:00 -9°C° 0.1 mm 1 m/s 734 mmHg 95%
    04:00 -8°C° 0.1 mm 1 m/s 734 mmHg 96%
    05:00 -8°C° 0.1 mm 1 m/s 733 mmHg 96%
    06:00 -8°C° 0.1 mm 1 m/s 733 mmHg 96%
    07:00 -8°C° 0.1 mm 1 m/s 733 mmHg 96%
    08:00 -8°C° 0.1 mm 2 m/s 732 mmHg 96%
    09:00 -8°C° 0.1 mm 2 m/s 732 mmHg 95%
    10:00 -7°C° 0.1 mm 2 m/s 732 mmHg 95%
    11:00 -7°C° 0.1 mm 3 m/s 731 mmHg 94%
    12:00 -7°C° 0.1 mm 3 m/s 731 mmHg 92%
    13:00 -6°C° 0.1 mm 3 m/s 731 mmHg 91%
    14:00 -6°C° 0.1 mm 3 m/s 730 mmHg 91%
    15:00 -6°C° 0.1 mm 3 m/s 730 mmHg 91%
    16:00 -5°C° 0.1 mm 3 m/s 730 mmHg 91%
    17:00 -5°C° 0.1 mm 2 m/s 730 mmHg 92%
    18:00 -6°C° 0.1 mm 2 m/s 730 mmHg 94%
    19:00 -6°C° 0.1 mm 2 m/s 730 mmHg 96%
    20:00 -7°C° 0 mm 2 m/s 729 mmHg 96%
    21:00 -7°C° 0 mm 2 m/s 729 mmHg 97%
    22:00 -8°C° 0 mm 2 m/s 729 mmHg 97%
    23:00 -8°C° 0.1 mm 2 m/s 729 mmHg 97%
    Arată mai mult